Location: Passo di Treia
(43.2833°N, 13.3333°E)
Time: 19:37:38
(UTC+00:00)

YAOGAN 6 - Pass Details

Date: 09 December 2019
Orbit: 466 x 504 km, 97.0° (Epoch: 22 January)

Event Time Altitude Azimuth Distance (km) Brightness Sun altitude
Rises 16:28:31 0° 138° (SE) 2,509 6.0 -10.2°
Reaches altitude 10° 16:30:49 10° 124° (ESE) 1,642 4.9 -10.6°
Maximum altitude 16:33:40 24° 69° (ENE) 1,048 3.6 -11.1°
Drops below altitude 10° 16:36:34 10° 15° (NNE) 1,671 4.9 -11.6°
Sets 16:38:55 0° 1° (N) 2,564 6.0 -12.0°
